Location: Newark
(39.4242°N, 80.8531°W)
Time: 03:35:07
(UTC+00:00)

AO-85 - Visible Passes

Search period start: 02 April 2020 00:00
Search period end: 12 April 2020 00:00
Orbit: 521 x 762 km, 64.8° (Epoch: 12 March)

Date Brightness Start Highest point End Pass type
(mag) Time Alt. Az. Time Alt. Az. Time Alt. Az.
02 Apr ? 02:38:35 10° NNW 02:39:29 16° N 02:39:29 16° N visible
03 Apr ? 01:24:52 10° NNE 01:25:55 11° NE 01:25:55 11° NE visible
03 Apr ? 03:02:50 10° NNW 03:03:31 15° NNW 03:03:31 15° NNW visible
04 Apr ? 01:47:38 10° N 01:50:00 22° NNE 01:50:00 22° NNE visible
05 Apr ? 02:11:38 10° NNW 02:14:07 36° N 02:14:07 36° N visible
06 Apr ? 00:56:54 10° N 00:59:28 16° NE 01:00:42 15° ENE visible
06 Apr ? 02:36:12 10° NW 02:38:19 28° WNW 02:38:19 28° WNW visible
07 Apr ? 01:20:33 10° NNW 01:24:14 37° NE 01:24:56 34° ENE visible
07 Apr ? 03:01:37 10° WNW 03:02:33 14° W 03:02:33 14° W visible
08 Apr ? 01:44:50 10° NW 01:48:48 79° WSW 01:49:14 68° S visible
09 Apr ? 00:29:35 10° N 00:32:53 25° NE 00:36:01 11° ESE visible
09 Apr ? 02:09:45 10° NW 02:13:11 28° WSW 02:13:38 27° SW visible
10 Apr ? 00:53:36 10° NNW 00:57:32 63° ENE 01:00:29 18° SE visible
10 Apr ? 02:36:49 10° W 02:37:23 10° WSW 02:37:57 10° WSW visible
11 Apr ? 01:18:11 10° NW 01:21:59 45° WSW 01:25:05 15° S visible
